This is the latest recevied weather packets stored in our database for station/object JS1SZZ-13. If no packets are shown the sender has not sent any weather packets the latest 10 day(s).
| Time | Temp. | Humidity | Pressure | Rain* | Wind** | Luminosity | Snow |
|---|---|---|---|---|---|---|---|
| 1787826458 | 20° C | 92% | 1009.2 hPa | 0 mm | - | - | - |
| 1787825559 | 19.44° C | 92% | 1009.3 hPa | 0 mm | - | - | - |
| 1787824659 | 20° C | 91% | 1009.2 hPa | 0 mm | - | - | - |
| 1787823758 | 20° C | 91% | 1009.1 hPa | 0 mm | - | - | - |
| 1787822860 | 20° C | 91% | 1009.5 hPa | 0 mm | - | - | - |
| 1787821958 | 20.56° C | 91% | 1009 hPa | 0 mm | - | - | - |
| 1787821060 | 20.56° C | 91% | 1009.2 hPa | 0 mm | - | - | - |
| 1787820158 | 20.56° C | 90% | 1009.9 hPa | 0 mm | - | - | - |
| 1787819259 | 20.56° C | 89% | 1009.6 hPa | 0 mm | - | - | - |
| 1787818359 | 21.11° C | 89% | 1009.5 hPa | 0 mm | - | - | - |
| 1787817458 | 21.11° C | 89% | 1009.7 hPa | 0 mm | - | - | - |
| 1787816559 | 21.67° C | 91% | 1010 hPa | 0 mm | - | - | - |
| 1787815659 | 22.22° C | 91% | 1010.1 hPa | 0 mm | - | - | - |
| 1787814758 | 22.22° C | 92% | 1010.1 hPa | 0 mm | - | - | - |
| 1787813859 | 22.22° C | 92% | 1010 hPa | 0 mm | - | - | - |
| 1787812958 | 22.22° C | 92% | 1010.3 hPa | 0 mm | - | - | - |
| 1787812060 | 22.22° C | 92% | 1010.3 hPa | 0 mm | - | - | - |
| 1787811159 | 22.22° C | 92% | 1010.3 hPa | 0 mm | - | - | - |
| 1787810259 | 22.22° C | 92% | 1010.4 hPa | 0 mm | - | - | - |
| 1787809359 | 22.22° C | 92% | 1010.9 hPa | 0.25 mm | - | - | - |
| 1787808458 | 22.22° C | 93% | 1011 hPa | 0.25 mm | - | - | - |
| 1787807560 | 22.22° C | 93% | 1010.7 hPa | 0.25 mm | - | - | - |
| 1787806659 | 21.67° C | 93% | 1010.6 hPa | 0.25 mm | - | - | - |
| 1787805758 | 21.67° C | 94% | 1010.9 hPa | 0.25 mm | - | - | - |
| 1787804860 | 21.11° C | 92% | 1010.8 hPa | 0.51 mm | - | - | - |
* Rain latest hour (hover to see other rain measurements)
** Current wind speed in m/s (hover to see current wind gust speed)